| time (UTC) | temp F | wind direction | speed knots | gust knots | rain 1hr in | rain 24hr in | rain mn in | humidity % | barometer mb |
| 20260507191500 | 58 | 292 | 5.2 | 10.4 | 0.00 | 0.00 | 0.00 | 81 | 1019.4 |
| 20260507190947 | 57 | 277 | 7.0 | 12.2 | 0.00 | 0.00 | 0.00 | 81 | 1019.3 |
| 20260507190436 | 57 | 304 | 5.2 | 11.3 | 0.00 | 0.00 | 0.00 | 81 | 1019.4 |
| 20260507185929 | 58 | 329 | 7.0 | 11.3 | 0.00 | 0.00 | 0.00 | 80 | 1019.4 |
| 20260507185437 | 58 | 318 | 6.1 | 10.4 | 0.00 | 0.00 | 0.00 | 80 | 1019.4 |
| 20260507184952 | 57 | 182 | 6.1 | 10.4 | 0.00 | 0.00 | 0.00 | 81 | 1019.4 |
| 20260507184459 | 57 | 270 | 7.0 | 13.9 | 0.00 | 0.00 | 0.00 | 81 | 1019.5 |
| 20260507183925 | 57 | 264 | 8.7 | 13.9 | 0.00 | 0.00 | 0.00 | 81 | 1019.6 |
| 20260507183437 | 57 | 198 | 5.2 | 8.7 | 0.00 | 0.00 | 0.00 | 81 | 1019.6 |
| 20260507182928 | 56 | 314 | 4.3 | 10.4 | 0.00 | 0.00 | 0.00 | 81 | 1019.8 |
| 20260507182429 | 57 | 271 | 7.0 | 10.4 | 0.00 | 0.00 | 0.00 | 81 | 1019.9 |
| 20260507181937 | 57 | 303 | 6.1 | 10.4 | 0.00 | 0.00 | 0.00 | 81 | 1019.8 |
| 20260507181437 | 56 | 235 | 3.5 | 13.0 | 0.00 | 0.00 | 0.00 | 82 | 1019.8 |
| 20260507180931 | 56 | 270 | 6.1 | 9.6 | 0.00 | 0.00 | 0.00 | 82 | 1019.8 |
| 20260507180419 | 56 | 291 | 3.5 | 8.7 | 0.00 | 0.00 | 0.00 | 82 | 1019.8 |
| 20260507175927 | 56 | 184 | 4.3 | 8.7 | 0.00 | 0.00 | 0.00 | 82 | 1019.8 |
| 20260507175435 | 56 | 273 | 4.3 | 8.7 | 0.00 | 0.00 | 0.00 | 82 | 1019.8 |
| 20260507174922 | 56 | 303 | 7.0 | 10.4 | 0.00 | 0.00 | 0.00 | 82 | 1019.7 |
| 20260507174429 | 56 | 313 | 7.0 | 11.3 | 0.00 | 0.00 | 0.00 | 82 | 1019.7 |
| 20260507173934 | 56 | 263 | 3.5 | 11.3 | 0.00 | 0.00 | 0.00 | 82 | 1019.7 |
| 20260507173435 | 56 | 261 | 2.6 | 9.6 | 0.00 | 0.00 | 0.00 | 82 | 1019.7 |
| 20260507172919 | 56 | 276 | 3.5 | 8.7 | 0.00 | 0.00 | 0.00 | 82 | 1019.7 |
| 20260507172424 | 56 | 251 | 6.1 | 8.7 | 0.00 | 0.00 | 0.00 | 82 | 1019.7 |
| 20260507171933 | 56 | 205 | 2.6 | 7.8 | 0.00 | 0.00 | 0.00 | 83 | 1019.7 |
| 20260507171418 | 55 | 220 | 5.2 | 9.6 | 0.00 | 0.00 | 0.00 | 83 | 1019.7 |
| 20260507170925 | 55 | 205 | 3.5 | 8.7 | 0.00 | 0.00 | 0.00 | 83 | 1019.6 |
| 20260507170500 | 55 | 231 | 5.2 | 8.7 | 0.00 | 0.00 | 0.00 | 83 | 1019.6 |
| 20260507165939 | 55 | 235 | 3.5 | 7.8 | 0.00 | 0.00 | 0.00 | 83 | 1019.7 |
| 20260507165456 | 55 | 270 | 4.3 | 6.1 | 0.00 | 0.00 | 0.00 | 83 | 1019.6 |
| 20260507164923 | 55 | 34 | 1.7 | 7.0 | 0.00 | 0.00 | 0.00 | 84 | 1019.6 |
| 20260507164429 | 55 | 232 | 2.6 | 7.0 | 0.00 | 0.00 | 0.00 | 84 | 1019.6 |
| 20260507164004 | 55 | 268 | 3.5 | 6.1 | 0.00 | 0.00 | 0.00 | 84 | 1019.6 |
| 20260507163457 | 55 | 277 | 2.6 | 8.7 | 0.00 | 0.00 | 0.00 | 84 | 1019.6 |
| 20260507162941 | 54 | 252 | 3.5 | 8.7 | 0.00 | 0.00 | 0.00 | 85 | 1019.5 |
| 20260507162451 | 54 | 292 | 2.6 | 7.0 | 0.00 | 0.00 | 0.00 | 85 | 1019.5 |
| 20260507161936 | 54 | 320 | 2.6 | 8.7 | 0.00 | 0.00 | 0.00 | 85 | 1019.6 |
| 20260507161423 | 54 | 323 | 5.2 | 8.7 | 0.00 | 0.00 | 0.00 | 84 | 1019.6 |
| 20260507160950 | 54 | 337 | 5.2 | 9.6 | 0.00 | 0.00 | 0.00 | 84 | 1019.6 |
| 20260507160436 | 54 | 268 | 4.3 | 9.6 | 0.00 | 0.00 | 0.00 | 85 | 1019.5 |
| 20260507155921 | 54 | 302 | 3.5 | 7.0 | 0.00 | 0.00 | 0.00 | 85 | 1019.5 |
| 20260507155428 | 54 | 256 | 2.6 | 7.0 | 0.00 | 0.00 | 0.00 | 85 | 1019.5 |
| 20260507154931 | 54 | 196 | 3.5 | 7.8 | 0.00 | 0.00 | 0.00 | 85 | 1019.4 |
| 20260507154436 | 54 | 233 | 3.5 | 7.8 | 0.00 | 0.00 | 0.00 | 85 | 1019.5 |
| 20260507153923 | 54 | 360 | 2.6 | 6.1 | 0.00 | 0.00 | 0.00 | 86 | 1019.5 |
| 20260507153500 | 54 | 201 | 1.7 | 5.2 | 0.00 | 0.00 | 0.00 | 86 | 1019.5 |
| 20260507152955 | 54 | 268 | 1.7 | 5.2 | 0.00 | 0.00 | 0.00 | 86 | 1019.6 |
| 20260507152421 | 54 | 261 | 2.6 | 6.1 | 0.00 | 0.00 | 0.00 | 86 | 1019.5 |
| 20260507151931 | 54 | 254 | 3.5 | 5.2 | 0.00 | 0.00 | 0.00 | 86 | 1019.5 |
| 20260507151432 | 53 | 14 | 1.7 | 7.8 | 0.00 | 0.00 | 0.00 | 86 | 1019.5 |
| 20260507150936 | 53 | 265 | 3.5 | 7.8 | 0.00 | 0.00 | 0.00 | 86 | 1019.4 |
| 20260507150423 | 53 | 263 | 4.3 | 8.7 | 0.00 | 0.00 | 0.00 | 86 | 1019.5 |
| 20260507145929 | 53 | 263 | 3.5 | 6.1 | 0.00 | 0.00 | 0.00 | 86 | 1019.5 |
| 20260507145435 | 53 | 151 | 1.7 | 5.2 | 0.00 | 0.00 | 0.00 | 86 | 1019.5 |
| 20260507144921 | 53 | 211 | 2.6 | 5.2 | 0.00 | 0.00 | 0.00 | 86 | 1019.4 |
| 20260507144449 | 53 | 290 | 1.7 | 4.3 | 0.00 | 0.00 | 0.00 | 87 | 1019.4 |
| 20260507143929 | 53 | 327 | 1.7 | 5.2 | 0.00 | 0.00 | 0.00 | 86 | 1019.4 |
| 20260507143437 | 53 | 45 | 0.9 | 5.2 | 0.00 | 0.00 | 0.00 | 86 | 1019.4 |
| 20260507142921 | 53 | 295 | 1.7 | 7.0 | 0.00 | 0.00 | 0.00 | 86 | 1019.4 |
| 20260507142458 | 53 | 294 | 2.6 | 7.0 | 0.00 | 0.00 | 0.00 | 86 | 1019.4 |
| 20260507141942 | 53 | 313 | 0.9 | 6.1 | 0.00 | 0.00 | 0.00 | 86 | 1019.3 |
| 20260507141446 | 53 | 177 | 0.9 | 11.3 | 0.00 | 0.00 | 0.00 | 86 | 1019.3 |
| 20260507140957 | 53 | 254 | 4.3 | 7.8 | 0.00 | 0.00 | 0.00 | 86 | 1019.3 |
| 20260507140423 | 53 | 240 | 3.5 | 8.7 | 0.00 | 0.00 | 0.00 | 87 | 1019.2 |
| 20260507135930 | 53 | 314 | 3.5 | 8.7 | 0.00 | 0.00 | 0.00 | 87 | 1019.2 |
| 20260507135437 | 53 | 300 | 3.5 | 6.1 | 0.00 | 0.00 | 0.00 | 87 | 1019.1 |
| 20260507134923 | 53 | 262 | 2.6 | 5.2 | 0.00 | 0.00 | 0.00 | 87 | 1019.0 |
| 20260507134431 | 53 | 257 | 1.7 | 5.2 | 0.00 | 0.00 | 0.00 | 87 | 1019.0 |
| 20260507133939 | 53 | 159 | 1.7 | 9.6 | 0.00 | 0.00 | 0.00 | 87 | 1019.0 |
| 20260507133442 | 53 | 294 | 5.2 | 9.6 | 0.00 | 0.00 | 0.00 | 86 | 1019.0 |
| 20260507132929 | 53 | 316 | 3.5 | 4.3 | 0.00 | 0.00 | 0.00 | 86 | 1019.0 |
| 20260507132435 | 53 | 313 | 1.7 | 7.0 | 0.00 | 0.00 | 0.00 | 86 | 1019.0 |
| 20260507131944 | 53 | 347 | 2.6 | 9.6 | 0.00 | 0.00 | 0.00 | 86 | 1018.9 |
| 20260507131419 | 53 | 222 | 4.3 | 9.6 | 0.00 | 0.00 | 0.00 | 86 | 1018.9 |
| 20260507130926 | 53 | 1 | 2.6 | 9.6 | 0.00 | 0.00 | 0.00 | 86 | 1018.8 |
| 20260507130434 | 53 | 275 | 3.5 | 9.6 | 0.00 | 0.00 | 0.00 | 86 | 1018.8 |
| 20260507125939 | 53 | 270 | 3.5 | 9.6 | 0.00 | 0.00 | 0.00 | 86 | 1018.8 |
| 20260507125426 | 53 | 285 | 4.3 | 8.7 | 0.00 | 0.00 | 0.00 | 86 | 1018.7 |
| 20260507124936 | 53 | 289 | 2.6 | 6.1 | 0.00 | 0.00 | 0.00 | 86 | 1018.8 |
| 20260507124456 | 53 | 258 | 1.7 | 6.1 | 0.00 | 0.00 | 0.00 | 86 | 1018.8 |
| 20260507123924 | 53 | 360 | 2.6 | 7.0 | 0.00 | 0.00 | 0.00 | 86 | 1018.8 |
| 20260507123453 | 53 | 282 | 2.6 | 7.0 | 0.00 | 0.00 | 0.00 | 86 | 1018.8 |
| 20260507122921 | 53 | 245 | 3.5 | 10.4 | 0.00 | 0.00 | 0.00 | 86 | 1018.7 |
| 20260507122423 | 53 | 308 | 6.1 | 10.4 | 0.00 | 0.00 | 0.00 | 86 | 1018.8 |
| 20260507121933 | 53 | 289 | 3.5 | 7.8 | 0.00 | 0.00 | 0.00 | 86 | 1018.8 |
| 20260507121422 | 53 | 278 | 4.3 | 7.8 | 0.00 | 0.00 | 0.00 | 86 | 1018.7 |
| 20260507120931 | 53 | 317 | 4.3 | 7.0 | 0.00 | 0.00 | 0.00 | 86 | 1018.7 |
| 20260507120438 | 53 | 268 | 3.5 | 7.0 | 0.00 | 0.00 | 0.00 | 86 | 1018.7 |
| 20260507115924 | 53 | 275 | 3.5 | 7.0 | 0.00 | 0.00 | 0.00 | 86 | 1018.7 |
| 20260507115431 | 53 | 244 | 3.5 | 9.6 | 0.00 | 0.00 | 0.00 | 86 | 1018.8 |
| 20260507114939 | 53 | 290 | 3.5 | 10.4 | 0.00 | 0.00 | 0.00 | 86 | 1018.9 |
| 20260507114421 | 54 | 278 | 6.1 | 10.4 | 0.00 | 0.00 | 0.00 | 86 | 1018.9 |
| 20260507113928 | 54 | 259 | 1.7 | 7.8 | 0.00 | 0.00 | 0.00 | 86 | 1018.9 |
| 20260507113434 | 54 | 359 | 2.6 | 9.6 | 0.00 | 0.00 | 0.00 | 86 | 1018.9 |
| 20260507112949 | 54 | 276 | 4.3 | 9.6 | 0.00 | 0.00 | 0.00 | 86 | 1018.9 |
| 20260507112435 | 54 | 273 | 1.7 | 9.6 | 0.00 | 0.00 | 0.00 | 86 | 1019.0 |
| 20260507111922 | 54 | 275 | 2.6 | 6.1 | 0.00 | 0.00 | 0.00 | 86 | 1019.0 |
| 20260507111453 | 54 | 342 | 1.7 | 5.2 | 0.00 | 0.00 | 0.00 | 86 | 1018.9 |
| 20260507110936 | 54 | 268 | 0.9 | 4.3 | 0.00 | 0.00 | 0.00 | 86 | 1019.0 |
| 20260507110420 | 54 | 88 | 1.7 | 6.1 | 0.00 | 0.00 | 0.00 | 86 | 1018.9 |
| 20260507105926 | 54 | 222 | 2.6 | 6.1 | 0.00 | 0.00 | 0.00 | 86 | 1019.0 |
| 20260507105434 | 54 | 343 | 3.5 | 8.7 | 0.00 | 0.00 | 0.00 | 86 | 1019.0 |
| 20260507104941 | 54 | 1 | 3.5 | 8.7 | 0.00 | 0.00 | 0.00 | 86 | 1018.9 |
| 20260507104449 | 54 | 359 | 3.5 | 8.7 | 0.00 | 0.00 | 0.00 | 86 | 1018.9 |
| 20260507103959 | 54 | 228 | 3.5 | 8.7 | 0.00 | 0.00 | 0.00 | 86 | 1019.0 |
| 20260507103446 | 54 | 222 | 3.5 | 7.8 | 0.00 | 0.00 | 0.00 | 86 | 1019.0 |
| 20260507102930 | 54 | 322 | 1.7 | 9.6 | 0.00 | 0.00 | 0.00 | 86 | 1019.1 |
| 20260507102437 | 54 | 270 | 2.6 | 9.6 | 0.00 | 0.00 | 0.00 | 86 | 1019.1 |
| 20260507101946 | 54 | 316 | 2.6 | 7.0 | 0.00 | 0.00 | 0.00 | 86 | 1019.1 |
| 20260507101453 | 53 | 27 | 2.6 | 7.0 | 0.00 | 0.00 | 0.00 | 86 | 1019.1 |
| 20260507100935 | 53 | 305 | 1.7 | 5.2 | 0.00 | 0.00 | 0.00 | 86 | 1019.0 |
| 20260507100451 | 53 | 107 | 1.7 | 7.8 | 0.00 | 0.00 | 0.00 | 86 | 1019.0 |
| 20260507095936 | 53 | 245 | 4.3 | 7.8 | 0.00 | 0.00 | 0.00 | 86 | 1018.9 |
| 20260507095421 | 54 | 268 | 3.5 | 6.1 | 0.00 | 0.00 | 0.00 | 86 | 1018.9 |
| 20260507094927 | 53 | 285 | 2.6 | 6.1 | 0.00 | 0.00 | 0.00 | 86 | 1018.9 |
| 20260507094434 | 53 | 292 | 0.9 | 9.6 | 0.00 | 0.00 | 0.00 | 86 | 1019.0 |
| 20260507093921 | 53 | 178 | 4.3 | 9.6 | 0.00 | 0.00 | 0.00 | 86 | 1018.9 |
| 20260507093444 | 54 | 272 | 4.3 | 11.3 | 0.00 | 0.00 | 0.00 | 86 | 1018.9 |
| 20260507092959 | 54 | 287 | 3.5 | 11.3 | 0.00 | 0.00 | 0.00 | 86 | 1018.9 |
| 20260507092425 | 54 | 294 | 3.5 | 12.2 | 0.00 | 0.00 | 0.00 | 86 | 1018.9 |
| 20260507091934 | 54 | 273 | 5.2 | 14.8 | 0.00 | 0.00 | 0.00 | 86 | 1018.8 |
| 20260507091418 | 54 | 271 | 6.1 | 14.8 | 0.00 | 0.00 | 0.00 | 86 | 1018.9 |
| 20260507090925 | 54 | 286 | 4.3 | 8.7 | 0.00 | 0.00 | 0.00 | 86 | 1019.0 |
| 20260507090432 | 54 | 224 | 5.2 | 13.0 | 0.00 | 0.00 | 0.00 | 86 | 1018.9 |
| 20260507085936 | 54 | 285 | 7.0 | 13.0 | 0.00 | 0.00 | 0.00 | 86 | 1019.0 |
| 20260507085439 | 54 | 313 | 3.5 | 12.2 | 0.00 | 0.00 | 0.00 | 86 | 1018.9 |
| 20260507084955 | 54 | 264 | 3.5 | 10.4 | 0.00 | 0.00 | 0.00 | 86 | 1019.0 |
| 20260507084437 | 54 | 232 | 4.3 | 8.7 | 0.00 | 0.00 | 0.00 | 86 | 1019.0 |
| 20260507083924 | 54 | 290 | 4.3 | 11.3 | 0.00 | 0.00 | 0.00 | 86 | 1019.2 |
| 20260507083429 | 54 | 275 | 5.2 | 11.3 | 0.00 | 0.00 | 0.00 | 86 | 1019.2 |
| 20260507082933 | 54 | 292 | 3.5 | 11.3 | 0.00 | 0.00 | 0.00 | 86 | 1019.3 |
| 20260507082434 | 54 | 195 | 5.2 | 11.3 | 0.00 | 0.00 | 0.00 | 86 | 1019.4 |
| 20260507081919 | 54 | 313 | 3.5 | 6.1 | 0.00 | 0.00 | 0.00 | 86 | 1019.5 |
| 20260507081428 | 54 | 34 | 0.9 | 4.3 | 0.00 | 0.00 | 0.00 | 86 | 1019.5 |
| 20260507080937 | 54 | 268 | 1.7 | 5.2 | 0.00 | 0.00 | 0.00 | 86 | 1019.5 |
| 20260507080422 | 54 | 360 | 2.6 | 7.0 | 0.00 | 0.00 | 0.00 | 86 | 1019.5 |
| 20260507075949 | 54 | 177 | 0.9 | 7.0 | 0.00 | 0.00 | 0.00 | 86 | 1019.5 |
| 20260507075430 | 54 | 216 | 4.3 | 7.0 | 0.00 | 0.00 | 0.00 | 86 | 1019.4 |
| 20260507074933 | 54 | 292 | 4.3 | 7.0 | 0.00 | 0.00 | 0.00 | 86 | 1019.5 |
| 20260507074420 | 54 | 298 | 3.5 | 7.0 | 0.00 | 0.00 | 0.00 | 86 | 1019.5 |
| 20260507073927 | 54 | 116 | 0.9 | 5.2 | 0.00 | 0.00 | 0.00 | 86 | 1019.5 |
| 20260507073434 | 54 | 301 | 1.7 | 5.2 | 0.00 | 0.00 | 0.00 | 86 | 1019.4 |
| 20260507072922 | 54 | 151 | 2.6 | 6.1 | 0.00 | 0.00 | 0.00 | 86 | 1019.5 |
| 20260507072428 | 54 | 45 | 1.7 | 6.1 | 0.00 | 0.00 | 0.00 | 87 | 1019.5 |
| 20260507071935 | 54 | 237 | 2.6 | 6.1 | 0.00 | 0.00 | 0.00 | 87 | 1019.5 |
| 20260507071420 | 54 | 215 | 1.7 | 7.8 | 0.00 | 0.00 | 0.00 | 87 | 1019.4 |
| 20260507070922 | 54 | 282 | 3.5 | 7.0 | 0.00 | 0.00 | 0.00 | 86 | 1019.4 |
| 20260507070429 | 54 | 278 | 2.6 | 13.0 | 0.00 | 0.00 | 0.00 | 86 | 1019.4 |
| 20260507065938 | 54 | 360 | 1.7 | 13.0 | 0.00 | 0.00 | 0.00 | 86 | 1019.4 |
| 20260507065425 | 54 | 257 | 4.3 | 8.7 | 0.00 | 0.00 | 0.00 | 86 | 1019.4 |
| 20260507064934 | 54 | 138 | 3.5 | 13.0 | 0.00 | 0.00 | 0.00 | 87 | 1019.3 |
| 20260507064420 | 54 | 230 | 5.2 | 16.5 | 0.00 | 0.00 | 0.00 | 87 | 1019.3 |
| 20260507063928 | 54 | 257 | 7.8 | 16.5 | 0.00 | 0.00 | 0.00 | 87 | 1019.3 |
| 20260507063431 | 54 | 247 | 6.1 | 12.2 | 0.00 | 0.00 | 0.00 | 87 | 1019.3 |
| 20260507062937 | 54 | 196 | 5.2 | 17.4 | 0.00 | 0.00 | 0.00 | 87 | 1019.3 |
| 20260507062453 | 54 | 284 | 9.6 | 17.4 | 0.00 | 0.00 | 0.00 | 87 | 1019.1 |
| 20260507061920 | 54 | 296 | 7.0 | 14.8 | 0.00 | 0.00 | 0.00 | 87 | 1019.2 |
| 20260507061445 | 54 | 268 | 8.7 | 17.4 | 0.00 | 0.00 | 0.00 | 87 | 1019.1 |
| 20260507060952 | 54 | 264 | 11.3 | 19.1 | 0.00 | 0.00 | 0.00 | 86 | 1019.2 |
| 20260507060435 | 54 | 257 | 7.0 | 20.9 | 0.00 | 0.00 | 0.00 | 86 | 1019.2 |
| 20260507055921 | 54 | 268 | 12.2 | 20.9 | 0.00 | 0.00 | 0.00 | 86 | 1019.0 |
| 20260507055426 | 54 | 264 | 13.0 | 20.9 | 0.00 | 0.00 | 0.00 | 86 | 1019.0 |
| 20260507054933 | 54 | 295 | 7.8 | 16.5 | 0.00 | 0.00 | 0.00 | 86 | 1019.0 |
| 20260507054421 | 55 | 270 | 9.6 | 17.4 | 0.00 | 0.00 | 0.00 | 86 | 1019.0 |
| 20260507053929 | 55 | 268 | 10.4 | 18.2 | 0.00 | 0.00 | 0.00 | 86 | 1019.0 |
| 20260507053438 | 55 | 275 | 10.4 | 18.2 | 0.00 | 0.00 | 0.00 | 86 | 1019.1 |
| 20260507052925 | 55 | 273 | 10.4 | 17.4 | 0.00 | 0.00 | 0.00 | 86 | 1019.2 |
| 20260507052429 | 55 | 273 | 8.7 | 18.2 | 0.00 | 0.00 | 0.00 | 86 | 1019.1 |
| 20260507051936 | 55 | 256 | 8.7 | 16.5 | 0.00 | 0.00 | 0.00 | 86 | 1019.2 |
| 20260507051423 | 55 | 285 | 9.6 | 19.1 | 0.00 | 0.00 | 0.00 | 86 | 1019.2 |
| 20260507050959 | 55 | 268 | 8.7 | 19.1 | 0.00 | 0.00 | 0.00 | 86 | 1019.2 |
| 20260507050425 | 55 | 287 | 9.6 | 23.5 | 0.00 | 0.00 | 0.00 | 86 | 1019.1 |
| 20260507045930 | 55 | 265 | 13.0 | 23.5 | 0.00 | 0.00 | 0.00 | 86 | 1019.2 |
| 20260507045438 | 55 | 307 | 13.0 | 20.9 | 0.00 | 0.00 | 0.00 | 86 | 1019.2 |
| 20260507044923 | 55 | 280 | 12.2 | 23.5 | 0.00 | 0.00 | 0.00 | 86 | 1019.1 |
| 20260507044451 | 55 | 278 | 15.6 | 23.5 | 0.00 | 0.00 | 0.00 | 86 | 1019.2 |
| 20260507043936 | 55 | 282 | 15.6 | 24.3 | 0.00 | 0.00 | 0.00 | 86 | 1019.0 |
| 20260507043422 | 55 | 275 | 16.5 | 24.3 | 0.00 | 0.00 | 0.00 | 86 | 1019.0 |
| 20260507042930 | 55 | 256 | 13.9 | 23.5 | 0.00 | 0.00 | 0.00 | 85 | 1019.0 |
| 20260507042438 | 55 | 282 | 12.2 | 22.6 | 0.00 | 0.00 | 0.00 | 85 | 1018.8 |
| 20260507041925 | 55 | 256 | 12.2 | 26.9 | 0.00 | 0.00 | 0.00 | 85 | 1018.8 |
| 20260507041425 | 55 | 252 | 14.8 | 26.9 | 0.00 | 0.00 | 0.00 | 85 | 1018.8 |
| 20260507040933 | 55 | 283 | 17.4 | 23.5 | 0.00 | 0.00 | 0.00 | 85 | 1018.7 |
| 20260507040436 | 55 | 273 | 12.2 | 25.2 | 0.00 | 0.00 | 0.00 | 85 | 1018.7 |
| 20260507035950 | 55 | 233 | 13.0 | 23.5 | 0.00 | 0.00 | 0.00 | 85 | 1018.8 |
| 20260507035436 | 55 | 297 | 13.9 | 24.3 | 0.00 | 0.00 | 0.00 | 85 | 1018.8 |
| 20260507034943 | 55 | 283 | 14.8 | 24.3 | 0.00 | 0.00 | 0.00 | 85 | 1018.8 |
| 20260507034445 | 55 | 270 | 13.0 | 23.5 | 0.00 | 0.00 | 0.00 | 85 | 1018.8 |
| 20260507033929 | 55 | 275 | 13.9 | 23.5 | 0.00 | 0.00 | 0.00 | 85 | 1018.7 |
| 20260507033433 | 55 | 275 | 14.8 | 24.3 | 0.00 | 0.00 | 0.00 | 85 | 1018.6 |
| 20260507032938 | 55 | 301 | 15.6 | 24.3 | 0.00 | 0.00 | 0.00 | 85 | 1018.4 |
| 20260507032425 | 56 | 266 | 12.2 | 24.3 | 0.00 | 0.00 | 0.00 | 85 | 1018.4 |
| 20260507031933 | 56 | 273 | 14.8 | 26.9 | 0.00 | 0.00 | 0.00 | 84 | 1018.3 |
| 20260507031419 | 56 | 282 | 15.6 | 26.9 | 0.00 | 0.00 | 0.00 | 84 | 1018.3 |
| 20260507030926 | 56 | 272 | 16.5 | 24.3 | 0.00 | 0.00 | 0.00 | 84 | 1018.2 |
| 20260507030427 | 56 | 268 | 15.6 | 25.2 | 0.00 | 0.00 | 0.00 | 84 | 1018.3 |
| 20260507025933 | 56 | 283 | 18.2 | 25.2 | 0.00 | 0.00 | 0.00 | 84 | 1018.3 |
| 20260507025420 | 56 | 282 | 15.6 | 25.2 | 0.00 | 0.00 | 0.00 | 83 | 1018.3 |
| 20260507024928 | 56 | 290 | 14.8 | 26.1 | 0.00 | 0.00 | 0.00 | 83 | 1018.3 |
| 20260507024435 | 56 | 263 | 16.5 | 26.1 | 0.00 | 0.00 | 0.00 | 83 | 1018.1 |
| 20260507023922 | 56 | 259 | 14.8 | 26.1 | 0.00 | 0.00 | 0.00 | 83 | 1018.1 |
| 20260507023429 | 56 | 251 | 13.0 | 26.1 | 0.00 | 0.00 | 0.00 | 83 | 1018.2 |
| 20260507022934 | 57 | 297 | 13.0 | 24.3 | 0.00 | 0.00 | 0.00 | 82 | 1018.0 |
| 20260507022440 | 57 | 289 | 13.0 | 29.5 | 0.00 | 0.00 | 0.00 | 82 | 1018.0 |
| 20260507021955 | 57 | 290 | 15.6 | 29.5 | 0.00 | 0.00 | 0.00 | 82 | 1018.2 |
| 20260507021420 | 57 | 271 | 14.8 | 24.3 | 0.00 | 0.00 | 0.00 | 82 | 1018.1 |
| 20260507020927 | 57 | 278 | 16.5 | 24.3 | 0.00 | 0.00 | 0.00 | 81 | 1018.1 |
| 20260507020435 | 57 | 294 | 13.0 | 26.1 | 0.00 | 0.00 | 0.00 | 81 | 1018.1 |
| 20260507015920 | 58 | 280 | 14.8 | 26.1 | 0.00 | 0.00 | 0.00 | 80 | 1018.1 |
| 20260507015426 | 58 | 280 | 11.3 | 23.5 | 0.00 | 0.00 | 0.00 | 80 | 1018.1 |
| 20260507014928 | 58 | 278 | 15.6 | 23.5 | 0.00 | 0.00 | 0.00 | 80 | 1018.1 |
| 20260507014436 | 58 | 280 | 11.3 | 24.3 | 0.00 | 0.00 | 0.00 | 80 | 1018.0 |
| 20260507013951 | 58 | 278 | 14.8 | 23.5 | 0.00 | 0.00 | 0.00 | 79 | 1018.1 |
| 20260507013437 | 59 | 232 | 13.0 | 25.2 | 0.00 | 0.00 | 0.00 | 79 | 1018.0 |
| 20260507012939 | 59 | 263 | 16.5 | 26.9 | 0.00 | 0.00 | 0.00 | 79 | 1018.0 |
| 20260507012425 | 59 | 256 | 14.8 | 26.9 | 0.00 | 0.00 | 0.00 | 79 | 1017.9 |
| 20260507011929 | 59 | 282 | 11.3 | 24.3 | 0.00 | 0.00 | 0.00 | 79 | 1018.2 |
| 20260507011436 | 59 | 213 | 12.2 | 26.9 | 0.00 | 0.00 | 0.00 | 79 | 1018.2 |
| 20260507010923 | 59 | 276 | 18.2 | 26.9 | 0.00 | 0.00 | 0.00 | 78 | 1018.3 |
| 20260507010432 | 60 | 265 | 14.8 | 22.6 | 0.00 | 0.00 | 0.00 | 78 | 1018.3 |
| 20260507005938 | 60 | 280 | 13.0 | 22.6 | 0.00 | 0.00 | 0.00 | 77 | 1018.3 |
| 20260507005426 | 60 | 251 | 11.3 | 20.0 | 0.00 | 0.00 | 0.00 | 78 | 1018.3 |
| 20260507004932 | 60 | 280 | 12.2 | 23.5 | 0.00 | 0.00 | 0.00 | 78 | 1018.3 |
| 20260507004420 | 60 | 257 | 14.8 | 23.5 | 0.00 | 0.00 | 0.00 | 78 | 1018.2 |
| 20260507003925 | 60 | 261 | 12.2 | 23.5 | 0.00 | 0.00 | 0.00 | 78 | 1018.3 |
| 20260507003459 | 60 | 285 | 13.0 | 22.6 | 0.00 | 0.00 | 0.00 | 77 | 1018.3 |
| 20260507002925 | 60 | 273 | 12.2 | 22.6 | 0.00 | 0.00 | 0.00 | 77 | 1018.3 |
| 20260507002432 | 60 | 279 | 13.9 | 22.6 | 0.00 | 0.00 | 0.00 | 77 | 1018.3 |
| 20260507001938 | 61 | 297 | 9.6 | 20.0 | 0.00 | 0.00 | 0.00 | 77 | 1018.3 |
| 20260507001456 | 61 | 282 | 9.6 | 19.1 | 0.00 | 0.00 | 0.00 | 77 | 1018.4 |
| 20260507000920 | 61 | 287 | 12.2 | 19.1 | 0.00 | 0.00 | 0.00 | 77 | 1018.4 |
| 20260507000423 | 60 | 280 | 10.4 | 20.9 | 0.00 | 0.00 | 0.00 | 77 | 1018.4 |
| 20260506235927 | 60 | 265 | 13.9 | 21.7 | 0.00 | 0.00 | 0.00 | 77 | 1018.5 |
| 20260506235435 | 60 | 301 | 12.2 | 25.2 | 0.00 | 0.00 | 0.00 | 78 | 1018.4 |
| 20260506234922 | 60 | 278 | 13.9 | 25.2 | 0.00 | 0.00 | 0.00 | 78 | 1018.5 |
| 20260506234458 | 61 | 295 | 14.8 | 22.6 | 0.00 | 0.00 | 0.00 | 77 | 1018.4 |
| 20260506233924 | 60 | 261 | 12.2 | 24.3 | 0.00 | 0.00 | 0.00 | 78 | 1018.5 |
| 20260506233430 | 60 | 264 | 16.5 | 25.2 | 0.00 | 0.00 | 0.00 | 78 | 1018.7 |
| 20260506232933 | 60 | 270 | 16.5 | 25.2 | 0.00 | 0.00 | 0.00 | 77 | 1018.6 |
| 20260506232442 | 61 | 270 | 13.9 | 24.3 | 0.00 | 0.00 | 0.00 | 77 | 1018.6 |
| 20260506231927 | 61 | 295 | 16.5 | 24.3 | 0.00 | 0.00 | 0.00 | 77 | 1018.6 |
| 20260506231435 | 61 | 263 | 16.5 | 24.3 | 0.00 | 0.00 | 0.00 | 76 | 1018.6 |
| 20260506230923 | 61 | 283 | 13.0 | 24.3 | 0.00 | 0.00 | 0.00 | 76 | 1018.6 |
| 20260506230429 | 61 | 280 | 13.0 | 24.3 | 0.00 | 0.00 | 0.00 | 76 | 1018.8 |
| 20260506225933 | 62 | 256 | 12.2 | 21.7 | 0.00 | 0.00 | 0.00 | 76 | 1018.8 |
| 20260506225436 | 61 | 285 | 13.9 | 23.5 | 0.00 | 0.00 | 0.00 | 77 | 1018.8 |
| 20260506224921 | 61 | 238 | 13.0 | 26.9 | 0.00 | 0.00 | 0.00 | 76 | 1019.0 |
| 20260506224449 | 62 | 269 | 13.0 | 26.9 | 0.00 | 0.00 | 0.00 | 76 | 1019.0 |
| 20260506223934 | 62 | 259 | 10.4 | 22.6 | 0.00 | 0.00 | 0.00 | 77 | 1019.1 |
| 20260506223419 | 61 | 289 | 14.8 | 24.3 | 0.00 | 0.00 | 0.00 | 76 | 1019.1 |
| 20260506222925 | 61 | 291 | 9.6 | 24.3 | 0.00 | 0.00 | 0.00 | 77 | 1019.2 |
| 20260506222431 | 61 | 329 | 13.9 | 23.5 | 0.00 | 0.00 | 0.00 | 76 | 1019.2 |
| 20260506221935 | 62 | 268 | 10.4 | 23.5 | 0.00 | 0.00 | 0.00 | 76 | 1019.3 |
| 20260506221450 | 62 | 55 | 10.4 | 20.9 | 0.00 | 0.00 | 0.00 | 76 | 1019.5 |
| 20260506220937 | 62 | 285 | 12.2 | 25.2 | 0.00 | 0.00 | 0.00 | 76 | 1019.6 |
| 20260506220445 | 62 | 301 | 14.8 | 25.2 | 0.00 | 0.00 | 0.00 | 75 | 1019.6 |
| 20260506215951 | 62 | 268 | 13.9 | 20.0 | 0.00 | 0.00 | 0.00 | 75 | 1019.6 |
| 20260506215419 | 63 | 280 | 10.4 | 20.0 | 0.00 | 0.00 | 0.00 | 75 | 1019.7 |
| 20260506214921 | 62 | 283 | 12.2 | 24.3 | 0.00 | 0.00 | 0.00 | 75 | 1019.8 |
| 20260506214427 | 62 | 273 | 11.3 | 24.3 | 0.00 | 0.00 | 0.00 | 75 | 1019.7 |
| 20260506213935 | 62 | 299 | 13.0 | 20.9 | 0.00 | 0.00 | 0.00 | 74 | 1019.8 |
| 20260506213436 | 63 | 258 | 13.0 | 20.9 | 0.00 | 0.00 | 0.00 | 74 | 1019.8 |
| 20260506212922 | 63 | 270 | 10.4 | 20.0 | 0.00 | 0.00 | 0.00 | 74 | 1019.8 |
| 20260506212428 | 63 | 297 | 9.6 | 20.0 | 0.00 | 0.00 | 0.00 | 74 | 1019.8 |
| 20260506211936 | 63 | 282 | 11.3 | 19.1 | 0.00 | 0.00 | 0.00 | 74 | 1019.8 |
| 20260506211439 | 63 | 221 | 12.2 | 19.1 | 0.00 | 0.00 | 0.00 | 74 | 1019.8 |
| 20260506210927 | 64 | 271 | 8.7 | 17.4 | 0.00 | 0.00 | 0.00 | 74 | 1019.9 |
| 20260506210433 | 64 | 264 | 10.4 | 16.5 | 0.00 | 0.00 | 0.00 | 74 | 1019.9 |
| 20260506205919 | 63 | 283 | 8.7 | 16.5 | 0.00 | 0.00 | 0.00 | 74 | 1019.9 |
| 20260506205428 | 63 | 292 | 9.6 | 15.6 | 0.00 | 0.00 | 0.00 | 74 | 1019.9 |
| 20260506204936 | 63 | 292 | 11.3 | 16.5 | 0.00 | 0.00 | 0.00 | 74 | 1020.1 |
| 20260506204422 | 63 | 275 | 11.3 | 16.5 | 0.00 | 0.00 | 0.00 | 74 | 1020.0 |
| 20260506203928 | 63 | 268 | 9.6 | 15.6 | 0.00 | 0.00 | 0.00 | 74 | 1020.0 |
| 20260506203432 | 63 | 237 | 10.4 | 16.5 | 0.00 | 0.00 | 0.00 | 74 | 1020.0 |
| 20260506202934 | 63 | 278 | 11.3 | 16.5 | 0.00 | 0.00 | 0.00 | 74 | 1020.1 |
| 20260506202421 | 63 | 287 | 9.6 | 16.5 | 0.00 | 0.00 | 0.00 | 74 | 1020.1 |
| 20260506201927 | 64 | 261 | 9.6 | 14.8 | 0.00 | 0.00 | 0.00 | 73 | 1020.2 |
| 20260506201433 | 64 | 268 | 7.8 | 14.8 | 0.00 | 0.00 | 0.00 | 73 | 1020.2 |
| 20260506200921 | 64 | 295 | 10.4 | 14.8 | 0.00 | 0.00 | 0.00 | 73 | 1020.2 |
| 20260506200447 | 64 | 280 | 8.7 | 13.9 | 0.00 | 0.00 | 0.00 | 72 | 1020.3 |
| 20260506195927 | 65 | 329 | 8.7 | 12.2 | 0.00 | 0.00 | 0.00 | 72 | 1020.3 |
| 20260506195433 | 65 | 273 | 8.7 | 13.9 | 0.00 | 0.00 | 0.00 | 72 | 1020.4 |
| 20260506194921 | 65 | 307 | 7.0 | 13.9 | 0.00 | 0.00 | 0.00 | 72 | 1020.4 |
| 20260506194426 | 64 | 273 | 7.8 | 13.0 | 0.00 | 0.00 | 0.00 | 72 | 1020.4 |
| 20260506193932 | 64 | 299 | 8.7 | 13.0 | 0.00 | 0.00 | 0.00 | 71 | 1020.5 |
| 20260506193440 | 65 | 280 | 6.1 | 13.0 | 0.00 | 0.00 | 0.00 | 72 | 1020.4 |
| 20260506192956 | 65 | 252 | 6.1 | 13.0 | 0.00 | 0.00 | 0.00 | 71 | 1020.4 |
| 20260506192436 | 65 | 297 | 6.1 | 11.3 | 0.00 | 0.00 | 0.00 | 72 | 1020.5 |
| 20260506191923 | 65 | 257 | 7.0 | 11.3 | 0.00 | 0.00 | 0.00 | 71 | 1020.6 |